When you browse on this site, cookies collect data to enhance your experience and personalize the content and advertising you see.
Visit our Privacy Policy to learn more. By continuing to use the site, you agree to this use of cookies and data.
  • In France
  • List of Countries
  • For 7 days
  • Water Temperature
  • Satellite Maps
  • Weather Map
  • Weather Widgets
  • user-avatar
    Login

    Hourly Weather Adelaide

    Today, 22 April, Monday

    Time Temperature Precipitation Wind Pressure Humidity
    00:00 +14°C° 0 mm 3 mps 764 mmHg 71%
    01:00 +14°C° 0 mm 3 mps 764 mmHg 72%
    02:00 +13°C° 0 mm 3 mps 765 mmHg 74%
    03:00 +14°C° 0 mm 2 mps 765 mmHg 75%
    04:00 +14°C° 0 mm 2 mps 765 mmHg 76%
    05:00 +14°C° 0 mm 2 mps 765 mmHg 77%
    06:00 +13°C° 0 mm 2 mps 766 mmHg 78%
    07:00 +15°C° 0 mm 2 mps 766 mmHg 70%
    08:00 +16°C° 0 mm 2 mps 766 mmHg 63%
    09:00 +17°C° 0 mm 2 mps 766 mmHg 56%
    10:00 +18°C° 0 mm 3 mps 766 mmHg 52%
    11:00 +19°C° 0 mm 3 mps 766 mmHg 48%
    12:00 +20°C° 0 mm 4 mps 766 mmHg 45%
    13:00 +20°C° 0 mm 4 mps 766 mmHg 46%
    14:00 +20°C° 0 mm 5 mps 765 mmHg 48%
    15:00 +19°C° 0 mm 5 mps 765 mmHg 49%
    16:00 +17°C° 0 mm 5 mps 766 mmHg 55%
    17:00 +17°C° 0 mm 4 mps 766 mmHg 60%
    18:00 +14°C° 0 mm 4 mps 766 mmHg 65%
    19:00 +14°C° 0 mm 4 mps 767 mmHg 68%
    20:00 +13°C° 0 mm 4 mps 767 mmHg 71%
    21:00 +13°C° 0 mm 3 mps 767 mmHg 74%
    22:00 +13°C° 0 mm 3 mps 767 mmHg 75%
    23:00 +13°C° 0 mm 3 mps 767 mmHg 77%

    Tomorrow, 23 April, Tuesday

    Time Temperature Precipitation Wind Pressure Humidity
    00:00 +12°C° 0 mm 3 mps 767 mmHg 79%
    01:00 +12°C° 0 mm 3 mps 767 mmHg 79%
    02:00 +12°C° 0 mm 3 mps 767 mmHg 80%
    03:00 +12°C° 0 mm 3 mps 767 mmHg 80%
    04:00 +12°C° 0 mm 3 mps 767 mmHg 79%
    05:00 +11°C° 0 mm 3 mps 767 mmHg 79%
    06:00 +12°C° 0 mm 2 mps 767 mmHg 79%
    07:00 +14°C° 0 mm 2 mps 767 mmHg 71%
    08:00 +16°C° 0 mm 3 mps 768 mmHg 63%
    09:00 +17°C° 0 mm 3 mps 768 mmHg 54%
    10:00 +19°C° 0 mm 3 mps 768 mmHg 49%
    11:00 +20°C° 0 mm 3 mps 767 mmHg 44%
    12:00 +21°C° 0 mm 2 mps 767 mmHg 39%
    13:00 +21°C° 0 mm 3 mps 767 mmHg 39%
    14:00 +21°C° 0 mm 3 mps 766 mmHg 39%
    15:00 +21°C° 0 mm 4 mps 766 mmHg 39%
    16:00 +19°C° 0 mm 4 mps 766 mmHg 48%
    17:00 +18°C° 0 mm 4 mps 766 mmHg 56%
    18:00 +15°C° 0 mm 4 mps 766 mmHg 64%
    19:00 +15°C° 0 mm 4 mps 767 mmHg 70%
    20:00 +14°C° 0 mm 4 mps 767 mmHg 76%
    21:00 +14°C° 0 mm 3 mps 767 mmHg 82%
    22:00 +14°C° 0 mm 3 mps 767 mmHg 83%
    23:00 +13°C° 0 mm 3 mps 767 mmHg 85%

    Day after tomorrow, 24 April, Wednesday

    Time Temperature Precipitation Wind Pressure Humidity
    00:00 +13°C° 0 mm 3 mps 766 mmHg 87%
    01:00 +13°C° 0 mm 3 mps 766 mmHg 88%
    02:00 +13°C° 0 mm 3 mps 766 mmHg 89%
    03:00 +13°C° 0 mm 3 mps 766 mmHg 90%
    04:00 +13°C° 0 mm 3 mps 766 mmHg 89%
    05:00 +14°C° 0 mm 2 mps 766 mmHg 89%
    06:00 +13°C° 0 mm 2 mps 766 mmHg 89%
    07:00 +15°C° 0 mm 2 mps 767 mmHg 78%
    08:00 +18°C° 0 mm 1 mps 767 mmHg 66%
    09:00 +20°C° 0 mm 1 mps 767 mmHg 55%
    10:00 +21°C° 0 mm 1 mps 767 mmHg 52%
    11:00 +21°C° 0 mm 2 mps 766 mmHg 48%
    12:00 +24°C° 0 mm 3 mps 766 mmHg 45%
    13:00 +22°C° 0 mm 3 mps 766 mmHg 48%
    14:00 +22°C° 0 mm 3 mps 765 mmHg 51%
    15:00 +22°C° 0 mm 4 mps 765 mmHg 54%
    16:00 +20°C° 0 mm 4 mps 765 mmHg 61%
    17:00 +19°C° 0 mm 3 mps 766 mmHg 69%
    18:00 +18°C° 0 mm 3 mps 766 mmHg 76%
    19:00 +17°C° 0 mm 3 mps 766 mmHg 79%
    20:00 +16°C° 0 mm 3 mps 766 mmHg 82%
    21:00 +15°C° 0 mm 2 mps 766 mmHg 85%
    22:00 +15°C° 0 mm 2 mps 766 mmHg 85%
    23:00 +15°C° 0 mm 2 mps 766 mmHg 85%

    25 April, Thursday

    Time Temperature Precipitation Wind Pressure Humidity
    00:00 +14°C° 0 mm 1 mps 766 mmHg 85%
    01:00 +14°C° 0 mm 1 mps 765 mmHg 86%
    02:00 +14°C° 0 mm 1 mps 765 mmHg 86%
    03:00 +14°C° 0 mm 1 mps 765 mmHg 87%
    04:00 +14°C° 0 mm 1 mps 765 mmHg 87%
    05:00 +14°C° 0 mm 1 mps 765 mmHg 88%
    06:00 +14°C° 0 mm 1 mps 765 mmHg 88%
    07:00 +15°C° 0 mm 1 mps 765 mmHg 82%
    08:00 +18°C° 0 mm 1 mps 766 mmHg 75%
    09:00 +19°C° 0 mm 2 mps 766 mmHg 68%
    10:00 +19°C° 0 mm 2 mps 766 mmHg 65%
    11:00 +20°C° 0 mm 3 mps 765 mmHg 61%
    12:00 +21°C° 0 mm 3 mps 765 mmHg 58%
    13:00 +21°C° 0 mm 4 mps 764 mmHg 59%
    14:00 +20°C° 0 mm 4 mps 764 mmHg 60%
    15:00 +20°C° 0 mm 4 mps 763 mmHg 62%
    16:00 +19°C° 0 mm 4 mps 763 mmHg 67%
    17:00 +18°C° 0 mm 4 mps 763 mmHg 72%
    18:00 +17°C° 0 mm 4 mps 764 mmHg 77%
    19:00 +17°C° 0 mm 4 mps 764 mmHg 77%
    20:00 +17°C° 0 mm 4 mps 764 mmHg 77%
    21:00 +17°C° 0 mm 4 mps 764 mmHg 77%
    22:00 +17°C° 0 mm 4 mps 764 mmHg 77%
    23:00 +17°C° 0 mm 4 mps 764 mmHg 77%

    26 April, Friday

    Time Temperature Precipitation Wind Pressure Humidity
    00:00 +15°C° 0 mm 4 mps 764 mmHg 78%
    01:00 +15°C° 0 mm 4 mps 764 mmHg 77%
    02:00 +15°C° 0 mm 4 mps 764 mmHg 77%
    03:00 +15°C° 0 mm 4 mps 764 mmHg 76%
    04:00 +15°C° 0 mm 4 mps 764 mmHg 75%
    05:00 +15°C° 0 mm 4 mps 764 mmHg 74%
    06:00 +15°C° 0 mm 4 mps 765 mmHg 73%
    07:00 +17°C° 0 mm 4 mps 765 mmHg 69%
    08:00 +17°C° 0 mm 4 mps 766 mmHg 65%
    09:00 +18°C° 0 mm 4 mps 766 mmHg 61%
    10:00 +18°C° 0 mm 4 mps 766 mmHg 58%
    11:00 +18°C° 0 mm 4 mps 766 mmHg 55%
    12:00 +18°C° 0 mm 4 mps 766 mmHg 52%
    13:00 +18°C° 0 mm 4 mps 766 mmHg 53%
    14:00 +18°C° 0 mm 4 mps 766 mmHg 53%
    15:00 +18°C° 0 mm 4 mps 766 mmHg 53%
    16:00 +15°C° 0 mm 4 mps 766 mmHg 58%
    17:00 +14°C° 0 mm 3 mps 766 mmHg 63%
    18:00 +13°C° 0 mm 3 mps 767 mmHg 69%
    19:00 +12°C° 0 mm 3 mps 767 mmHg 71%
    20:00 +13°C° 0 mm 2 mps 767 mmHg 74%
    21:00 +12°C° 0 mm 2 mps 767 mmHg 76%
    22:00 +12°C° 0 mm 2 mps 767 mmHg 77%
    23:00 +12°C° 0 mm 2 mps 767 mmHg 78%

    27 April, Saturday

    Time Temperature Precipitation Wind Pressure Humidity
    00:00 +12°C° 0 mm 1 mps 767 mmHg 79%
    01:00 +12°C° 0 mm 1 mps 767 mmHg 80%
    02:00 +12°C° 0 mm 2 mps 767 mmHg 80%
    03:00 +12°C° 0 mm 2 mps 766 mmHg 80%
    04:00 +12°C° 0 mm 2 mps 767 mmHg 81%
    05:00 +12°C° 0 mm 2 mps 767 mmHg 81%
    06:00 +12°C° 0 mm 2 mps 767 mmHg 82%
    07:00 +12°C° 0 mm 3 mps 767 mmHg 76%
    08:00 +14°C° 0 mm 3 mps 768 mmHg 70%
    09:00 +15°C° 0 mm 4 mps 768 mmHg 64%
    10:00 +17°C° 0 mm 4 mps 768 mmHg 61%
    11:00 +18°C° 0 mm 4 mps 767 mmHg 58%
    12:00 +18°C° 0 mm 4 mps 767 mmHg 55%
    13:00 +19°C° 0 mm 4 mps 766 mmHg 54%
    14:00 +19°C° 0 mm 4 mps 766 mmHg 54%
    15:00 +19°C° 0 mm 4 mps 766 mmHg 54%
    16:00 +18°C° 0 mm 4 mps 766 mmHg 60%
    17:00 +17°C° 0 mm 4 mps 766 mmHg 66%
    18:00 +16°C° 0 mm 3 mps 766 mmHg 72%
    19:00 +14°C° 0 mm 3 mps 767 mmHg 74%
    20:00 +14°C° 0 mm 3 mps 767 mmHg 76%
    21:00 +14°C° 0 mm 3 mps 767 mmHg 79%
    22:00 +14°C° 0 mm 3 mps 767 mmHg 79%
    23:00 +13°C° 0 mm 3 mps 767 mmHg 80%
    Show more